Simultaneous Nadir Overpasses (SNOs) Predictions

Prediction of SNOs between NOAA-19 and METOP-C Satellite Orbit:

Table of predicted SNOs for the next 14.0 days since TLE Epoch: 8/21/2021
Index Date (NOAA-19) Time (NOAA-19) Lat,Lon (NOAA-19) SZA (NOAA-19 ) Date (METOP-C) Time (METOP-C) Lat,Lon (METOP-C) SZA (METOP-C ) Distance(km) Time Diff (sec)
1 08/22/2021 20:03:14 -80.62, 88.32 109.74 08/22/2021 20:04:22 -80.61, 88.35 109.73 1.37 68
2 08/22/2021 20:54:10 80.61,-104.10 70.29 08/22/2021 20:55:03 80.62,-104.18 70.31 1.84 53
3 08/22/2021 21:45:13 -80.62, 62.91 109.71 08/22/2021 21:45:43 -80.60, 62.86 109.72 2.29 30
4 08/22/2021 22:36:09 80.60,-129.50 70.32 08/22/2021 22:36:24 80.61,-129.67 70.31 3.11 15
5 08/22/2021 23:27:12 -80.60, 37.86 109.67 08/22/2021 23:27:04 -80.61, 37.70 109.68 3.15 8
6 08/23/2021 00:18:10 80.61,-155.26 70.33 08/23/2021 00:17:46 80.60,-155.17 70.31 2.49 24
7 08/23/2021 01:09:13 -80.61, 12.10 109.66 08/23/2021 01:08:26 -80.60, 12.20 109.67 2.21 47
8 08/23/2021 02:00:09 80.60, 179.69 70.38 08/23/2021 01:59:07 80.61, 179.67 70.36 1.48 62
9 09/02/2021 22:57:48 -80.63, 44.89 105.73 09/02/2021 22:58:58 -80.63, 44.98 105.70 1.61 70
10 09/02/2021 23:48:47 80.62,-147.72 74.29 09/02/2021 23:49:39 80.63,-147.67 74.32 1.38 52
11 09/03/2021 00:39:48 -80.62, 19.48 105.70 09/03/2021 00:40:20 -80.62, 19.48 105.69 0.58 32
12 09/03/2021 01:30:47 80.62,-173.13 74.32 09/03/2021 01:31:01 80.62,-173.17 74.33 0.71 14
13 09/03/2021 02:21:48 -80.62, -5.93 105.67 09/03/2021 02:21:42 -80.61, -6.01 105.69 2.02 6
14 09/03/2021 03:12:47 80.61, 161.47 74.36 09/03/2021 03:12:23 80.61, 161.34 74.33 2.44 24
15 09/03/2021 04:03:48 -80.62, -31.34 105.64 09/03/2021 04:03:03 -80.62, -31.17 105.64 3.12 45



Historial Predications of SNOs between NOAA-19 and METOP-C
